Погода в Гамильтоне

Бермудские Острова     32°17′38″N   64°47′08″W
темп.,
°C
ветер,
м/с
пор.,
м/с
влажн.,
%
обл.,
%
осадки,
мм/ч
давл.,
гПа
погр.,
м
15 августа, пн
пн1500:00+28ю677599 1.9 1017842
03:00+27ю7876100 3.2 1015835
06:00+28ю8976100 0.8 1014901
09:00+27ю7974100 4.8 1015741
12:00+28юз8975100 5.3 1015982
15:00+27юз8978100 11.9 1014766
18:00+27юз7880100 10.1 1014539
21:00+28ююз6772100 13.5 1014696
16 августа, вт
вт1600:00+28юз7773100 0.1 1014755
03:00+28юз77736 0.1 1014921
06:00+28юз787436 0.0 10141054
09:00+28юз8874100 0.2 10151015
12:00+28юз7978100 2.7 1015604
15:00+28юз9978100 10.0 1014744
18:00+28ююз8978100 8.4 1014544
21:00+28ююз7876100 15.1 1015663
17 августа, ср
ср1700:00+28ю9976100 3.9 1015814
03:00+28ююз897492 4.0 1014979
06:00+28юз897571 0.1 10141058
09:00+28юз7876100 0.3 1016934
12:00+28зюз777648 0.6 1017854
15:00+28зюз5676100 0.9 1016773
18:00+28зюз557510 0.1 1016788
21:00+28юз457752 0.1 1017773
18 августа, чт
чт1800:00+28юз567999 0.1 1017750
03:00+28юз67805 0.6 1016758
06:00+28ююз777981 1.6 1016792
09:00+28юз787856 2.6 1018843
12:00+28юз777883 0.8 1018817
15:00+28юз6779100 4.4 1018595
18:00+28юз677971 1.4 1018762
21:00+29юз6678100 3.8 1020840
19 августа, пт
пт1900:00+28ююз557698 0.0 1020728
03:00+28юз66776 0.2 1020781
06:00+28юз457614 0.4 1020683
09:00+28ююз55775 0.8 1021759
12:00+28ююз55785 0.3 1022669
15:00+28юз44769 0.3 1021712
18:00+28юз33745 0.0 1022650
21:00+28ю227247 0.1 1022477